GW0828 Weather Reports


Display with metric or nautical units.
time (UTC)temp
F
wind
direction
speed
MPH
gust
MPH
rain 1hr
in
rain 24hr
in
rain mn
in
humidity
%
barometer
mb
20260506195537 42 173 4.0 7.0 0.00 0.68 0.45 60 1020.3
20260506195036 43 212 2.0 6.0 0.00 0.68 0.45 62 1020.3
20260506194555 43 204 2.0 6.0 0.00 0.68 0.45 63 1020.2
20260506194037 42 0 0.0 6.0 0.00 0.68 0.45 65 1020.3
20260506193535 40 53 2.0 6.0 0.00 0.68 0.45 63 1020.4
20260506193048 40 118 1.0 5.0 0.00 0.68 0.45 63 1020.3
20260506192537 40 219 2.0 5.0 0.00 0.68 0.45 57 1020.4
20260506192037 40 0 0.0 3.0 0.00 0.68 0.45 58 1020.4
20260506191550 40 314 0.0 4.0 0.00 0.68 0.45 61 1020.6
20260506191037 40 0 0.0 6.0 0.00 0.68 0.45 58 1020.5
20260506190537 39 326 1.0 6.0 0.01 0.68 0.45 62 1020.7
20260506190049 40 24 1.0 6.0 0.01 0.68 0.45 61 1020.7
20260506185537 39 0 1.0 4.0 0.02 0.73 0.45 63 1020.8
20260506185037 40 0 0.0 4.0 0.03 0.73 0.45 65 1020.8
20260506184554 40 0 2.0 5.0 0.03 0.73 0.45 67 1020.8
20260506184036 39 352 1.0 5.0 0.03 0.73 0.45 63 1020.8
20260506183538 39 69 0.0 3.0 0.04 0.73 0.45 66 1020.9
20260506183052 40 243 0.0 4.0 0.05 0.73 0.45 63 1020.9
20260506182534 39 38 1.0 5.0 0.06 0.73 0.45 67 1021.0
20260506182037 38 91 2.0 5.0 0.07 0.73 0.45 60 1021.1
20260506181545 38 0 0.0 4.0 0.08 0.73 0.45 67 1021.1
20260506181037 38 347 0.0 4.0 0.10 0.73 0.45 68 1021.1
20260506180537 39 0 1.0 4.0 0.10 0.72 0.44 74 1021.2
20260506180049 37 356 1.0 4.0 0.10 0.71 0.43 72 1021.1
20260506175539 37 17 2.0 4.0 0.11 0.74 0.43 69 1021.3
20260506175036 36 360 0.0 4.0 0.12 0.73 0.42 73 1021.3
20260506174548 36 56 0.0 4.0 0.13 0.73 0.42 72 1021.1
20260506174038 37 337 1.0 4.0 0.12 0.72 0.41 75 1021.1
20260506173538 37 51 2.0 4.0 0.14 0.72 0.41 76 1021.1
20260506173127 36 73 2.0 4.0 0.14 0.71 0.40 72 1021.1
20260506172536 37 50 1.0 6.0 0.14 0.70 0.39 74 1021.1
20260506172037 37 312 0.0 7.0 0.15 0.69 0.38 79 1021.1
20260506171548 37 335 2.0 7.0 0.16 0.68 0.37 76 1021.1
20260506171040 37 41 2.0 6.0 0.15 0.66 0.35 75 1021.1
20260506170540 36 46 2.0 7.0 0.15 0.65 0.34 78 1021.3
20260506170053 36 33 2.0 7.0 0.15 0.64 0.33 77 1021.2
20260506165537 37 23 1.0 6.0 0.14 0.72 0.31 79 1021.3
20260506165037 36 0 1.0 6.0 0.14 0.71 0.30 82 1021.2
20260506164555 36 335 1.0 5.0 0.14 0.70 0.29 81 1021.1
20260506164037 36 342 0.0 5.0 0.14 0.69 0.28 82 1020.9
20260506163537 36 347 1.0 5.0 0.14 0.68 0.27 85 1020.9
20260506163058 36 273 1.0 5.0 0.15 0.67 0.26 84 1020.8
20260506162536 36 331 2.0 5.0 0.14 0.65 0.24 85 1020.7
20260506162037 36 0 1.0 6.0 0.14 0.64 0.23 86 1020.7
20260506161612 35 293 1.0 6.0 0.13 0.62 0.21 88 1020.8
20260506161037 35 310 1.0 6.0 0.12 0.61 0.20 89 1020.8
20260506160536 34 316 3.0 6.0 0.12 0.60 0.19 89 1020.7
20260506160103 34 270 1.0 6.0 0.11 0.58 0.18 90 1020.7
20260506155534 34 0 2.0 7.0 0.11 0.68 0.17 90 1020.6
20260506155034 34 283 2.0 7.0 0.10 0.67 0.16 91 1020.6
20260506154555 34 251 3.0 7.0 0.10 0.66 0.15 91 1020.6
20260506154038 34 0 3.0 7.0 0.09 0.65 0.14 92 1020.6
20260506153537 33 305 3.0 7.0 0.07 0.63 0.12 92 1020.6
20260506153056 34 277 2.0 7.0 0.07 0.62 0.11 93 1020.4
20260506152537 33 289 2.0 7.0 0.06 0.61 0.10 93 1020.5
20260506152037 33 299 2.0 7.0 0.05 0.60 0.09 93 1020.4
20260506151555 33 277 2.0 6.0 0.05 0.58 0.08 93 1020.4
20260506151036 33 248 2.0 8.0 0.05 0.58 0.08 93 1020.4
20260506150535 33 281 2.0 8.0 0.04 0.58 0.07 93 1020.4
20260506150053 32 278 3.0 9.0 0.04 0.58 0.07 93 1020.3
20260506145536 32 283 3.0 9.0 0.03 0.60 0.06 93 1020.4
20260506145038 32 307 3.0 9.0 0.03 0.60 0.06 94 1020.4
20260506144552 32 297 3.0 8.0 0.02 0.58 0.05 94 1020.3
20260506144036 32 277 2.0 8.0 0.03 0.58 0.05 94 1020.3
20260506143538 32 290 2.0 8.0 0.03 0.58 0.05 93 1020.2
20260506143047 32 308 3.0 10.0 0.02 0.58 0.04 94 1020.3
20260506142534 32 308 3.0 10.0 0.02 0.58 0.04 94 1020.2
20260506142037 32 293 2.0 8.0 0.02 0.58 0.04 93 1020.1
20260506141546 32 347 2.0 8.0 0.01 0.57 0.03 94 1020.1
20260506141037 32 286 2.0 7.0 0.01 0.57 0.03 94 1020.1
20260506140540 31 284 2.0 9.0 0.01 0.57 0.03 94 1020.1
20260506140051 31 0 2.0 9.0 0.01 0.57 0.03 94 1020.1
20260506135536 31 304 3.0 8.0 0.01 0.57 0.03 94 1020.1
20260506135037 31 311 3.0 8.0 0.01 0.57 0.03 93 1020.0
20260506134556 31 352 2.0 6.0 0.01 0.57 0.03 94 1020.0
20260506134038 31 12 2.0 4.0 0.00 0.56 0.02 94 1019.9
20260506133537 31 314 2.0 4.0 0.00 0.56 0.02 94 1019.8
20260506133051 31 329 1.0 4.0 0.00 0.56 0.02 94 1019.8
20260506132536 31 0 1.0 6.0 0.00 0.56 0.02 94 1019.7
20260506132037 31 21 1.0 8.0 0.00 0.56 0.02 94 1019.6
20260506131552 31 44 3.0 8.0 0.00 0.56 0.02 94 1019.5
20260506131033 31 358 2.0 8.0 0.00 0.56 0.02 94 1019.4
20260506130538 31 356 1.0 4.0 0.00 0.56 0.02 94 1019.4
20260506130100 31 35 2.0 4.0 0.00 0.56 0.02 94 1019.3
20260506125536 31 15 1.0 6.0 0.00 0.58 0.02 94 1019.2
20260506125038 31 14 2.0 8.0 0.00 0.58 0.02 94 1019.3
20260506124553 31 35 3.0 8.0 0.00 0.58 0.02 94 1019.2
20260506124036 31 58 4.0 7.0 0.00 0.58 0.02 94 1019.1
20260506123538 31 24 2.0 7.0 0.00 0.58 0.02 94 1018.9
20260506123051 31 13 2.0 6.0 0.00 0.58 0.02 94 1018.9
20260506122540 31 360 1.0 5.0 0.00 0.58 0.02 94 1018.8
20260506122037 31 352 1.0 5.0 0.00 0.58 0.02 94 1018.8
20260506121544 31 320 1.0 5.0 0.00 0.58 0.02 94 1018.7
20260506121036 31 0 1.0 5.0 0.00 0.58 0.02 94 1018.7
20260506120537 32 330 1.0 5.0 0.00 0.58 0.02 94 1018.8
20260506120106 32 323 2.0 5.0 0.00 0.58 0.02 94 1018.6
20260506115537 32 342 2.0 5.0 0.00 0.61 0.02 94 1018.7
20260506115036 32 314 2.0 5.0 0.00 0.61 0.02 94 1018.6
20260506114546 32 308 2.0 5.0 0.00 0.61 0.02 94 1018.5
20260506114037 32 314 1.0 5.0 0.00 0.61 0.02 94 1018.4
20260506113537 32 347 1.0 5.0 0.00 0.61 0.02 94 1018.3
20260506113052 32 284 0.0 2.0 0.00 0.61 0.02 94 1018.1
20260506112536 32 0 0.0 2.0 0.00 0.61 0.02 94 1018.1
20260506112040 32 0 0.0 2.0 0.00 0.61 0.02 94 1018.1
20260506111545 32 0 0.0 2.0 0.00 0.61 0.02 94 1018.0
20260506111036 32 286 0.0 2.0 0.00 0.61 0.02 94 1018.0
20260506110536 32 286 0.0 2.0 0.00 0.61 0.02 94 1017.9
20260506110057 32 0 0.0 2.0 0.00 0.61 0.02 94 1017.9
20260506105536 32 0 0.0 2.0 0.00 0.72 0.02 94 1017.9
20260506105037 32 281 0.0 2.0 0.00 0.72 0.02 94 1017.8
20260506104552 32 0 0.0 1.0 0.00 0.72 0.02 94 1017.8
20260506104034 32 0 0.0 2.0 0.00 0.72 0.02 94 1017.6
20260506103534 32 282 0.0 2.0 0.00 0.72 0.02 94 1017.9
20260506103053 32 0 0.0 2.0 0.00 0.72 0.02 94 1017.9
20260506102534 32 0 0.0 2.0 0.00 0.72 0.02 94 1017.8
20260506102034 32 0 0.0 2.0 0.00 0.72 0.02 94 1017.6
20260506101555 32 0 0.0 2.0 0.00 0.72 0.02 94 1017.7
20260506101036 32 275 0.0 1.0 0.00 0.72 0.02 94 1017.9
20260506100537 32 283 0.0 1.0 0.00 0.72 0.02 94 1017.8
20260506095537 32 283 0.0 1.0 0.00 0.76 0.02 94 1017.9
20260506095033 32 283 0.0 1.0 0.00 0.76 0.02 94 1018.0
20260506094549 32 0 0.0 1.0 0.00 0.76 0.02 94 1017.8
20260506094034 32 0 0.0 1.0 0.00 0.76 0.02 94 1017.7
20260506093533 32 0 0.0 2.0 0.00 0.76 0.02 94 1017.7
20260506093049 32 283 0.0 2.0 0.00 0.76 0.02 94 1017.7
20260506092538 32 0 0.0 2.0 0.01 0.76 0.02 94 1017.8
20260506092038 32 0 0.0 1.0 0.01 0.76 0.02 94 1017.8
20260506091548 32 0 0.0 0.0 0.01 0.76 0.02 94 1017.6
20260506091041 32 0 0.0 0.0 0.01 0.76 0.02 94 1017.6
20260506090540 32 0 0.0 1.0 0.01 0.76 0.02 94 1017.8
20260506090046 32 0 0.0 1.0 0.01 0.76 0.02 94 1017.8
20260506085538 32 0 0.0 3.0 0.01 0.83 0.02 94 1017.7
20260506085038 32 0 0.0 3.0 0.01 0.83 0.02 94 1017.7
20260506084607 32 51 1.0 3.0 0.01 0.83 0.02 94 1017.7
20260506084038 32 52 1.0 2.0 0.01 0.83 0.02 94 1017.7
20260506083538 32 54 0.0 2.0 0.01 0.83 0.02 94 1017.8
20260506083048 32 0 0.0 0.0 0.01 0.83 0.02 94 1017.9
20260506082538 32 0 0.0 0.0 0.00 0.82 0.01 94 1017.9
20260506082039 32 0 0.0 0.0 0.00 0.82 0.01 94 1017.9
20260506081554 32 0 0.0 0.0 0.00 0.82 0.01 94 1017.8
20260506081038 32 0 0.0 0.0 0.00 0.82 0.01 94 1017.8
20260506080540 32 0 0.0 0.0 0.00 0.82 0.01 94 1017.8
20260506073049 32 0 0.0 2.0 0.01 0.86 0.01 94 1017.8
20260506072538 32 0 0.0 3.0 0.01 0.86 0.01 94 1017.8
20260506072038 32 54 1.0 3.0 0.01 0.86 0.01 94 1017.8
20260506071552 32 28 0.0 3.0 0.01 0.86 0.01 94 1017.8
20260506071038 32 28 1.0 3.0 0.01 0.86 0.01 94 1017.8
20260506070538 32 0 1.0 3.0 0.01 0.86 0.01 94 1017.9
20260506062038 33 65 1.0 4.0 0.01 0.85 0.00 94 1017.9
20260506061551 33 43 2.0 4.0 0.01 0.85 0.00 94 1017.7
20260506061038 33 63 1.0 3.0 0.01 0.85 0.00 94 1017.7
20260506060538 33 61 2.0 3.0 0.02 0.85 0.00 94 1017.6
20260506051038 33 42 1.0 4.0 0.03 0.84 0.84 94 1017.1
20260506050538 33 28 2.0 5.0 0.02 0.83 0.83 93 1017.1
20260506045038 33 45 2.0 4.0 0.02 0.83 0.83 94 1017.1
20260506044643 33 28 1.0 4.0 0.02 0.83 0.83 94 1017.1
20260506044038 33 27 1.0 4.0 0.02 0.83 0.83 94 1017.0
20260506043538 33 66 1.0 4.0 0.01 0.82 0.82 94 1017.0
20260506043047 33 266 0.0 4.0 0.01 0.82 0.82 93 1016.9
20260506042538 33 266 1.0 3.0 0.01 0.82 0.82 93 1016.9
20260506042039 33 0 1.0 3.0 0.01 0.82 0.82 93 1016.9
20260506041559 33 266 1.0 2.0 0.01 0.82 0.82 93 1016.8
20260506041038 33 0 0.0 2.0 0.01 0.81 0.81 93 1016.8
20260506040541 33 0 0.0 0.0 0.01 0.81 0.81 93 1016.7
20260506040047 33 0 0.0 0.0 0.01 0.81 0.81 93 1016.6
20260506035538 33 0 0.0 0.0 0.01 0.81 0.81 93 1016.6
20260506035038 33 0 0.0 2.0 0.01 0.81 0.81 93 1016.6
20260506034623 33 0 0.0 3.0 0.01 0.81 0.81 93 1016.6
20260506034038 33 266 0.0 3.0 0.02 0.81 0.81 93 1016.5
20260506033538 33 266 0.0 3.0 0.02 0.81 0.81 93 1016.6
20260506033056 33 259 0.0 3.0 0.02 0.81 0.81 93 1016.4
20260506032538 33 259 1.0 3.0 0.02 0.81 0.81 93 1016.4
20260506032038 33 0 0.0 2.0 0.02 0.81 0.81 93 1016.3
20260506031548 33 0 0.0 3.0 0.02 0.81 0.81 93 1016.4
20260506031038 33 0 0.0 3.0 0.01 0.80 0.80 93 1016.4
20260506030538 33 260 1.0 3.0 0.01 0.80 0.80 93 1016.3
20260506030052 33 0 1.0 3.0 0.01 0.80 0.80 93 1016.3
20260506025538 33 0 0.0 3.0 0.01 0.81 0.80 93 1016.2
20260506025039 33 277 1.0 3.0 0.01 0.81 0.80 93 1016.0
20260506024554 33 275 1.0 4.0 0.01 0.81 0.80 93 1015.8
20260506024040 33 266 1.0 4.0 0.00 0.80 0.79 93 1015.7
20260506023539 33 271 1.0 3.0 0.00 0.80 0.79 93 1015.6
20260506023108 33 250 1.0 3.0 0.00 0.80 0.79 93 1015.6
20260506022538 33 250 1.0 3.0 0.00 0.80 0.79 93 1015.4
20260506022038 33 250 1.0 3.0 0.00 0.80 0.79 93 1015.5
20260506021549 33 250 0.0 3.0 0.00 0.80 0.79 93 1015.3
20260506021038 33 0 1.0 3.0 0.00 0.80 0.79 93 1015.2
20260506020541 33 250 0.0 3.0 0.00 0.80 0.79 93 1015.2
20260506020049 33 0 0.0 3.0 0.00 0.80 0.79 93 1015.1
20260506015538 33 0 0.0 3.0 0.00 0.80 0.79 93 1015.1
20260506015040 33 250 0.0 3.0 0.00 0.80 0.79 93 1015.2
20260506014553 33 0 0.0 3.0 0.00 0.80 0.79 93 1015.1
20260506014043 33 250 1.0 3.0 0.00 0.80 0.79 93 1015.2
20260506013538 33 279 1.0 3.0 0.00 0.80 0.79 93 1015.0
20260506013049 33 293 1.0 3.0 0.00 0.80 0.79 93 1014.7
20260506012538 33 292 1.0 3.0 0.00 0.80 0.79 93 1014.7
20260506012038 33 273 0.0 3.0 0.00 0.80 0.79 93 1014.6
20260506011603 33 273 0.0 2.0 0.00 0.80 0.79 93 1014.6
20260506011038 33 0 0.0 2.0 0.00 0.80 0.79 93 1014.6
20260506010540 33 273 0.0 2.0 0.00 0.80 0.79 93 1014.6
20260506010056 33 272 0.0 3.0 0.00 0.80 0.79 93 1014.6
20260506005537 33 273 1.0 3.0 0.00 0.84 0.79 93 1014.7
20260506005037 33 296 1.0 3.0 0.00 0.84 0.79 93 1014.6
20260506004624 33 0 1.0 4.0 0.00 0.84 0.79 93 1014.6
20260506004037 33 272 1.0 4.0 0.00 0.84 0.79 93 1014.6
20260506003539 33 263 1.0 4.0 0.00 0.84 0.79 93 1014.5
20260506003107 33 0 1.0 3.0 0.00 0.84 0.79 93 1014.5
20260506002537 33 0 1.0 4.0 0.00 0.84 0.79 93 1014.6
20260506002037 33 264 1.0 4.0 0.00 0.84 0.79 93 1014.6
20260506001552 33 283 1.0 4.0 0.00 0.84 0.79 93 1014.5
20260506001039 33 281 0.0 4.0 0.00 0.84 0.79 93 1014.5
20260506000539 33 292 0.0 4.0 0.00 0.84 0.79 93 1014.4
20260506000047 33 320 1.0 4.0 0.00 0.84 0.79 93 1014.3
20260505235540 33 321 1.0 4.0 0.00 0.84 0.79 93 1014.2
20260505235038 33 0 1.0 3.0 0.00 0.84 0.79 93 1014.1
20260505234614 33 0 0.0 4.0 0.00 0.84 0.79 93 1014.2
20260505234037 33 342 1.0 4.0 0.00 0.84 0.79 93 1014.3
20260505233540 33 0 0.0 4.0 0.00 0.84 0.79 93 1014.3
20260505233053 33 335 1.0 4.0 0.01 0.84 0.79 93 1014.3
20260505232537 33 0 0.0 4.0 0.01 0.84 0.79 93 1014.4
20260505232041 33 0 1.0 4.0 0.01 0.84 0.79 92 1014.4
20260505231548 33 347 1.0 4.0 0.01 0.84 0.79 92 1014.4
20260505231037 33 0 1.0 4.0 0.02 0.84 0.79 92 1014.5
20260505230537 33 308 1.0 3.0 0.02 0.84 0.79 93 1014.4
20260505230050 33 282 1.0 4.0 0.03 0.84 0.79 93 1014.3
20260505225538 33 285 1.0 4.0 0.03 0.84 0.79 92 1014.4
20260505225037 33 262 2.0 4.0 0.04 0.84 0.79 92 1014.3
20260505224552 33 258 2.0 5.0 0.04 0.84 0.79 92 1014.3
20260505224037 34 285 1.0 5.0 0.05 0.84 0.79 92 1014.2
20260505223537 34 312 0.0 4.0 0.05 0.84 0.79 92 1014.2
20260505223049 34 245 1.0 5.0 0.05 0.83 0.78 93 1014.3
20260505222538 34 304 2.0 5.0 0.05 0.83 0.78 93 1014.3
20260505222038 34 10 1.0 5.0 0.06 0.83 0.78 92 1014.1
20260505221544 34 1 2.0 6.0 0.06 0.82 0.77 92 1014.0
20260505221037 34 3 2.0 6.0 0.06 0.82 0.77 92 1014.0
20260505220537 34 2 2.0 5.0 0.07 0.82 0.77 92 1013.9
20260505220059 34 360 1.0 8.0 0.07 0.81 0.76 92 1014.1
20260505215537 34 352 1.0 9.0 0.07 0.81 0.76 92 1014.3
20260505215037 34 31 3.0 9.0 0.07 0.80 0.75 92 1014.2
20260505214549 34 6 3.0 9.0 0.08 0.80 0.75 92 1014.1
20260505214040 34 32 2.0 9.0 0.07 0.79 0.74 92 1014.1
20260505213538 34 0 4.0 9.0 0.08 0.79 0.74 92 1014.1
20260505213052 34 4 3.0 6.0 0.07 0.78 0.73 92 1014.1
20260505212538 34 1 2.0 8.0 0.07 0.78 0.73 92 1014.0
20260505212108 34 20 3.0 8.0 0.07 0.77 0.72 92 1014.1
20260505211551 34 284 1.0 5.0 0.06 0.76 0.71 92 1014.1
20260505211038 34 342 1.0 5.0 0.06 0.76 0.71 92 1014.3
20260505210537 34 18 3.0 9.0 0.05 0.75 0.70 92 1014.3
20260505210054 34 29 3.0 9.0 0.04 0.74 0.69 92 1014.2
20260505205538 34 38 2.0 7.0 0.05 0.74 0.69 92 1014.3
20260505205038 34 352 2.0 7.0 0.04 0.73 0.68 92 1014.3
20260505204552 34 2 3.0 7.0 0.03 0.72 0.67 92 1014.2
20260505204039 34 25 1.0 5.0 0.03 0.72 0.67 92 1014.4
20260505203539 35 25 1.0 8.0 0.03 0.71 0.66 92 1014.5
20260505203051 35 27 3.0 8.0 0.03 0.71 0.66 92 1014.5
20260505202538 35 316 3.0 8.0 0.03 0.71 0.66 92 1014.7
20260505202038 35 347 3.0 11.0 0.02 0.70 0.65 92 1014.8
20260505201547 35 23 3.0 13.0 0.02 0.70 0.65 92 1014.8
20260505201038 35 18 5.0 14.0 0.02 0.70 0.65 92 1014.8
20260505200538 35 46 5.0 14.0 0.02 0.70 0.65 92 1014.6
20260505200049 35 6 7.0 14.0 0.03 0.70 0.65 92 1014.8